Wind_Speed
33 32 30 27 24 22 19 18 17 16 14 19 15 14 19 23 22 23 25 22 24 25 28 28 22 19 19 16 14 14 17 21 26 31 30 34 32 32 31 27 24 23 22
36 34 32 29 26 25 21 19 21 20 21 12 13 17 20 21 22 25 25 23 25 28 26 23 20 19 17 17 19 21 23 22 25 31 31 29 30 28 24 23 21 21 22
36 34 33 29 28 23 24 27 25 20 13 10 15 17 18 22 23 25 21 24 26 26 25 21 23 19 20 19 21 22 22 26 25 27 29 30 31 26 25 24 23 24 23
35 37 36 36 29 27 28 25 15 11 10 9 14 16 22 21 24 22 22 25 26 24 23 21 22 22 23 20 21 25 27 25 25 27 30 32 30 28 24 24 26 29 34
35 36 33 25 22 26 22 14 14 12 8 8 14 17 22 20 26 24 24 25 26 25 22 23 22 23 23 22 24 24 24 25 27 28 31 30 29 27 25 27 31 34 27
38 36 25 18 18 14 12 12 12 14 14 7 17 22 21 25 23 26 24 25 25 25 23 23 22 22 22 22 22 21 23 24 26 28 28 27 26 26 29 31 31 26 30
35 29 23 23 22 22 16 13 10 1 7 16 20 20 25 24 24 25 23 24 24 22 24 24 22 23 22 22 22 21 22 23 24 24 25 24 27 29 28 23 21 23 25
24 19 18 19 15 13 11 5 9 13 13 10 20 25 23 21 21 23 23 23 23 24 24 24 23 23 22 23 22 22 22 22 22 20 19 21 21 21 20 19 22 21 25
24 22 20 21 20 6 2 15 18 8 15 20 22 23 19 19 19 20 21 23 24 24 23 23 22 23 22 21 22 22 22 21 19 17 15 15 16 15 15 18 19 22 28
28 27 23 17 4 17 18 8 10 15 18 18 16 16 21 23 23 21 22 24 24 22 22 22 21 21 20 21 22 21 22 18 16 15 12 14 13 16 15 14 16 19 21
14 14 12 12 16 11 10 12 16 16 15 17 20 21 24 21 22 24 22 24 22 22 22 21 20 20 20 20 20 20 19 16 14 15 15 16 17 20 16 15 15 16 19
9 14 15 11 8 9 13 16 14 15 18 21 23 26 23 23 25 25 21 22 21 23 23 21 20 21 19 18 17 18 16 15 14 15 18 18 20 24 20 19 17 15 15
14 11 6 6 10 13 13 14 16 18 22 24 23 24 24 25 26 23 22 22 23 26 23 22 22 22 19 15 16 16 16 15 14 15 18 19 20 23 21 19 14 13 15
3 6 9 12 13 14 15 17 21 22 22 20 22 26 29 31 25 22 23 24 24 32 25 22 23 23 22 20 19 18 16 15 16 16 18 20 22 23 20 16 17 17 18
10 11 12 14 16 17 19 21 22 20 20 21 24 26 27 31 30 25 25 26 25 23 24 22 25 26 25 24 21 19 17 14 17 16 18 20 23 21 19 15 14 17 15
15 16 17 18 19 22 24 25 23 24 23 22 25 25 25 26 26 25 26 25 24 27 27 26 28 27 26 25 24 21 19 14 17 17 17 20 23 20 17 14 13 15 15
18 19 21 23 25 27 27 29 33 34 31 30 28 26 25 26 24 23 23 25 25 25 32 30 28 26 25 25 25 22 21 14 15 17 17 19 22 16 13 13 13 14 15
19 20 22 25 28 30 32 34 36 39 42 43 34 31 27 27 24 23 21 25 27 27 34 31 28 26 24 22 21 21 20 17 17 16 16 18 19 16 14 12 13 14 14
22 24 26 29 32 34 36 37 37 37 39 40 38 32 28 24 22 24 25 25 28 28 32 34 27 24 22 21 19 18 18 19 17 17 17 19 19 17 14 13 13 12 13
29 29 30 32 34 36 36 37 37 39 37 38 37 34 27 23 24 23 23 23 22 26 27 32 26 22 19 17 18 19 19 19 20 23 19 20 19 17 14 13 11 12 11
29 30 30 30 29 30 32 33 33 33 34 38 38 35 31 27 25 22 23 22 23 24 25 26 26 22 21 20 16 18 19 20 21 21 20 20 19 17 13 14 11 11 11
26 26 26 27 29 29 28 28 29 32 36 35 34 35 30 23 21 22 20 19 19 20 22 22 25 20 22 21 20 19 19 20 19 19 19 19 18 15 13 13 11 11 10
24 25 25 26 27 27 28 28 31 30 32 31 33 28 15 16 17 15 13 14 17 14 14 18 20 21 17 17 17 19 20 21 20 18 18 19 18 17 14 14 12 12 9
22 23 24 25 26 25 25 26 25 27 18 12 11 4 5 6 8 8 10 11 11 11 10 11 16 20 15 16 17 18 19 18 17 19 19 19 19 17 16 15 13 11 9
21 21 23 24 25 25 24 23 23 24 22 22 18 16 12 5 7 10 14 17 19 18 21 24 20 17 17 19 19 18 19 22 20 18 17 21 19 16 17 16 13 12 11
21 21 21 22 22 22 23 23 23 23 23 24 23 21 19 18 16 14 14 14 14 14 15 16 16 19 22 27 27 23 24 18 20 20 18 19 22 20 17 16 14 14 13
Wind_Direction
221 228 230 226 225 234 236 239 245 257 257 274 311 294 294 305 305 308 311 300 296 300 308 315 308 311 309 305 310 302 297 297 295 299 304 307 307 309 309 305 305 304 303
227 234 235 236 240 241 235 238 254 245 265 291 273 279 290 294 294 298 305 296 297 306 306 310 302 296 293 297 299 302 304 304 305 308 310 311 315 317 316 312 309 306 303
227 233 234 235 235 230 233 244 248 255 257 257 278 281 286 291 292 304 302 296 299 305 310 301 304 289 290 292 295 297 298 304 307 309 310 316 318 319 315 312 311 310 309
227 231 233 231 226 233 232 235 252 214 242 271 289 290 298 294 301 304 298 295 298 301 304 296 297 292 291 290 294 297 303 308 311 313 313 316 317 320 319 321 320 318 315
229 225 222 218 215 213 217 240 197 236 243 309 298 301 294 303 308 293 290 295 297 297 292 292 296 300 291 293 297 301 303 311 314 314 314 313 315 317 320 319 315 320 318
222 219 210 209 204 227 204 212 238 245 272 302 289 290 300 295 290 293 289 291 291 294 291 292 297 300 292 294 300 302 307 311 312 314 312 310 308 309 312 312 313 317 320
217 210 209 207 213 215 229 215 236 236 324 281 286 285 281 284 289 290 289 288 293 289 294 292 295 297 293 293 297 299 300 303 309 310 308 304 305 310 312 315 316 315 315
201 200 201 202 208 184 190 180 354 319 289 295 279 285 294 289 294 294 289 291 291 291 293 287 294 292 290 291 292 295 297 306 310 308 302 305 307 309 309 309 314 313 306
189 192 191 192 184 146 45 294 298 297 273 277 293 297 292 296 299 294 283 281 288 290 294 289 294 292 288 285 289 295 302 311 308 308 305 314 311 302 297 298 305 311 310
187 187 188 178 192 301 301 280 271 276 294 301 305 309 310 297 299 300 286 279 287 289 290 288 295 295 283 284 288 295 302 308 307 308 304 321 326 321 305 299 305 309 311
185 202 211 285 293 268 262 275 285 293 299 305 302 298 303 300 298 306 292 290 287 286 284 287 290 297 288 283 286 295 305 303 306 319 326 327 330 333 321 310 301 301 302
243 276 289 282 272 283 287 288 289 299 302 299 295 294 295 297 298 302 291 285 284 280 281 281 285 293 294 284 286 298 293 295 306 320 323 325 329 330 325 323 317 306 294
288 294 294 286 287 288 285 294 298 297 295 292 289 291 297 298 299 300 288 281 278 278 275 278 278 287 290 281 290 286 282 287 300 310 316 322 323 324 322 322 320 311 302
346 304 296 294 291 295 300 300 296 293 289 290 296 298 299 300 294 295 289 285 284 269 264 275 275 278 275 278 286 286 282 288 291 299 310 317 319 320 322 326 323 325 327
323 313 305 302 302 300 297 295 290 285 288 294 301 302 299 297 294 291 285 284 279 277 278 274 266 272 275 273 282 284 273 283 284 291 302 310 318 316 321 325 327 332 334
321 318 312 305 303 302 300 296 291 291 290 292 296 301 304 298 296 290 284 285 282 272 263 266 268 273 274 278 283 277 266 269 280 284 296 307 317 314 317 323 325 336 334
312 311 308 305 305 306 303 299 298 300 294 284 287 297 294 294 293 291 282 286 282 276 255 265 272 273 276 276 277 271 257 260 274 284 295 305 314 313 323 326 323 330 339
299 298 297 296 296 297 297 295 295 294 294 299 287 288 289 288 284 279 279 282 279 277 264 263 274 275 276 275 268 259 253 252 264 281 293 303 308 311 319 326 317 325 336
310 308 306 304 301 299 300 299 301 301 298 297 294 287 285 288 283 275 275 275 274 276 283 262 272 274 274 269 263 253 247 250 259 271 283 293 304 305 318 316 308 313 329
309 308 306 305 305 305 305 304 301 294 298 296 293 291 285 286 286 278 278 280 282 280 286 271 267 266 269 268 259 250 250 255 264 261 273 284 296 295 313 308 302 303 322
316 316 317 316 316 319 319 313 310 304 303 290 290 286 293 279 280 275 279 277 284 288 283 283 263 259 261 264 258 253 251 256 260 264 267 278 294 285 302 302 300 295 306
322 321 322 321 322 322 337 329 318 311 309 307 296 290 285 268 274 273 273 278 290 295 283 297 262 262 260 257 259 262 261 261 262 261 264 270 282 277 285 293 295 286 297
332 331 330 330 329 328 320 335 338 320 309 309 315 286 259 266 266 266 265 264 278 293 309 316 274 266 261 263 260 262 263 261 265 267 258 260 267 273 273 281 286 282 288
337 337 337 336 336 333 333 329 335 1 7 359 4 70 224 228 212 217 246 262 271 274 273 267 270 274 283 268 264 262 262 262 259 258 258 251 253 262 261 269 278 276 274
334 337 339 341 341 340 338 334 330 339 338 351 3 3 7 344 302 284 283 285 286 287 275 270 268 271 265 257 263 271 269 257 251 248 253 251 249 249 254 258 265 260 260
331 333 335 338 340 341 339 337 335 333 330 329 329 329 328 323 314 307 298 294 293 292 288 282 282 277 273 267 262 262 263 261 253 245 238 251 244 240 243 247 253 250 247
Height
1522 1524 1526 1529 1532 1534 1535 1535 1537 1536 1535 1535 1532 1532 1534 1531 1529 1529 1527 1526 1525 1524 1522 1520 1517 1514 1513 1509 1506 1506 1507 1505 1502 1497 1494 1490 1486 1481 1478 1474 1471 1467 1465
1515 1517 1520 1523 1527 1528 1530 1530 1529 1528 1529 1529 1529 1529 1529 1528 1526 1525 1522 1522 1522 1521 1518 1516 1514 1511 1509 1507 1504 1503 1502 1500 1497 1491 1487 1484 1480 1476 1472 1469 1466 1462 1459
1509 1512 1515 1518 1519 1521 1521 1520 1519 1521 1524 1524 1526 1526 1525 1523 1522 1520 1518 1517 1515 1515 1513 1511 1510 1508 1506 1502 1500 1499 1495 1494 1492 1487 1481 1478 1474 1471 1467 1464 1461 1457 1454
1503 1505 1506 1507 1511 1513 1511 1511 1513 1518 1518 1519 1519 1520 1521 1519 1517 1515 1514 1513 1511 1510 1508 1507 1505 1503 1502 1498 1495 1494 1492 1489 1485 1482 1477 1472 1469 1466 1463 1459 1455 1452 1447
1501 1503 1505 1510 1509 1505 1507 1515 1510 1514 1513 1515 1516 1515 1514 1513 1513 1511 1510 1508 1507 1504 1503 1502 1500 1497 1495 1493 1490 1488 1487 1483 1481 1475 1471 1467 1463 1461 1458 1455 1451 1446 1440
1496 1499 1504 1507 1510 1510 1509 1508 1510 1510 1508 1509 1511 1510 1509 1508 1506 1506 1504 1502 1501 1500 1499 1497 1495 1492 1490 1488 1485 1483 1481 1478 1475 1470 1466 1462 1459 1457 1454 1451 1447 1442 1436
1493 1497 1500 1501 1500 1501 1502 1503 1501 1503 1506 1507 1506 1504 1502 1501 1500 1499 1498 1497 1496 1495 1493 1491 1489 1486 1484 1482 1481 1479 1477 1475 1471 1466 1462 1459 1455 1453 1449 1445 1442 1439 1435
1495 1497 1499 1500 1499 1499 1498 1498 1500 1500 1500 1500 1499 1498 1496 1495 1495 1494 1493 1491 1490 1489 1487 1485 1483 1481 1479 1477 1475 1474 1472 1469 1465 1462 1459 1456 1452 1449 1446 1443 1439 1434 1430
1491 1493 1494 1493 1492 1495 1495 1498 1497 1497 1496 1495 1494 1492 1492 1491 1490 1489 1487 1486 1484 1483 1481 1479 1477 1475 1473 1472 1470 1468 1466 1464 1460 1458 1455 1452 1449 1446 1443 1439 1436 1431 1425
1484 1484 1487 1491 1494 1496 1495 1494 1494 1493 1493 1491 1489 1489 1487 1486 1485 1484 1482 1480 1479 1478 1476 1474 1472 1470 1468 1466 1465 1463 1460 1458 1456 1454 1451 1449 1445 1442 1439 1436 1432 1428 1424
1488 1491 1491 1493 1493 1492 1492 1492 1492 1490 1488 1487 1485 1484 1482 1480 1479 1478 1476 1473 1473 1472 1470 1469 1467 1465 1463 1461 1459 1457 1455 1453 1452 1449 1446 1444 1441 1438 1434 1431 1428 1424 1420
1491 1491 1491 1490 1490 1491 1490 1489 1487 1485 1483 1482 1480 1478 1476 1474 1472 1470 1468 1467 1467 1465 1464 1464 1462 1460 1458 1456 1454 1453 1451 1449 1447 1445 1443 1440 1437 1434 1430 1426 1422 1419 1417
1489 1489 1489 1489 1488 1487 1485 1483 1481 1480 1478 1475 1473 1471 1468 1468 1465 1462 1461 1460 1459 1458 1458 1457 1456 1454 1453 1451 1450 1448 1447 1445 1444 1441 1439 1437 1434 1430 1426 1422 1418 1415 1412
1488 1488 1487 1485 1484 1482 1481 1479 1476 1474 1472 1469 1467 1463 1460 1458 1457 1456 1454 1453 1452 1449 1450 1450 1449 1448 1447 1446 1445 1444 1443 1441 1439 1437 1436 1433 1430 1427 1423 1419 1415 1411 1407
1486 1485 1484 1482 1480 1478 1476 1474 1471 1468 1466 1463 1460 1457 1453 1449 1448 1448 1446 1445 1444 1443 1443 1442 1441 1440 1439 1439 1438 1437 1437 1436 1435 1433 1432 1430 1427 1423 1420 1417 1413 1409 1405
1484 1483 1481 1479 1477 1474 1470 1467 1466 1462 1459 1456 1453 1450 1445 1442 1440 1439 1437 1436 1435 1435 1433 1432 1432 1432 1431 1431 1431 1431 1431 1431 1430 1429 1428 1426 1423 1420 1416 1414 1411 1408 1403
1481 1479 1477 1474 1471 1467 1464 1461 1456 1452 1452 1449 1446 1443 1440 1436 1433 1431 1430 1429 1427 1427 1423 1424 1424 1424 1423 1423 1423 1423 1424 1425 1425 1424 1423 1422 1419 1416 1414 1411 1408 1405 1401
1476 1473 1470 1466 1463 1459 1456 1452 1448 1444 1439 1436 1436 1433 1431 1428 1426 1424 1422 1421 1418 1417 1415 1415 1415 1416 1416 1416 1416 1416 1418 1419 1419 1419 1419 1417 1415 1413 1411 1409 1406 1404 1400
1471 1467 1464 1460 1457 1452 1448 1443 1439 1434 1430 1425 1423 1421 1421 1419 1417 1415 1414 1412 1410 1408 1407 1407 1408 1408 1409 1409 1409 1410 1411 1412 1413 1414 1414 1413 1411 1410 1408 1406 1404 1402 1399
1464 1461 1457 1452 1447 1442 1438 1433 1429 1425 1421 1416 1412 1410 1410 1409 1407 1405 1405 1404 1402 1401 1399 1399 1400 1401 1402 1402 1403 1404 1405 1406 1407 1408 1408 1408 1407 1406 1404 1403 1401 1399 1397
1457 1453 1449 1445 1440 1435 1430 1425 1420 1416 1411 1407 1403 1400 1401 1399 1398 1397 1396 1396 1395 1393 1392 1390 1392 1393 1394 1395 1396 1397 1398 1399 1400 1401 1402 1403 1402 1401 1400 1399 1398 1397 1396
1452 1447 1443 1438 1434 1429 1423 1418 1413 1408 1403 1397 1392 1389 1390 1390 1390 1390 1389 1388 1387 1385 1384 1383 1384 1385 1387 1388 1389 1390 1391 1392 1393 1395 1396 1397 1397 1397 1396 1396 1395 1394 1393
1447 1443 1438 1433 1429 1423 1419 1414 1407 1401 1394 1389 1384 1380 1381 1382 1383 1383 1383 1381 1380 1379 1377 1377 1377 1379 1381 1381 1382 1383 1384 1385 1386 1388 1389 1391 1392 1392 1392 1392 1392 1391 1391
1443 1438 1433 1428 1424 1419 1414 1409 1405 1399 1390 1383 1379 1377 1375 1376 1376 1375 1376 1376 1375 1374 1373 1373 1373 1374 1374 1375 1376 1376 1377 1378 1379 1381 1382 1384 1385 1387 1387 1388 1388 1388 1388
1439 1434 1429 1425 1420 1415 1410 1406 1402 1397 1392 1387 1382 1379 1375 1372 1371 1371 1371 1370 1369 1368 1368 1368 1367 1367 1368 1368 1369 1369 1370 1371 1372 1374 1375 1377 1379 1381 1382 1383 1384 1384 1385
1435 1430 1426 1422 1417 1412 1408 1403 1399 1394 1390 1386 1383 1379 1375 1372 1370 1368 1367 1365 1364 1362 1362 1361 1361 1361 1361 1360 1361 1362 1363 1363 1365 1366 1368 1370 1372 1375 1377 1379 1380 1380 1381